Weather in Kalikino

Russia / Lipetsk Oblast     52°57′00″N   39°48′56″E
temp.,
°C
wind,
m/s
gust,
m/s
humid.,
%
clouds,
%
prec.,
mm/h
press.,
hPa
HPBL,
m
20 april, tue
tue2000:00+7ene51084100 0.0 1019585
03:00+7e41185100 0.0 1018573
06:00+6e61089100 0.0 1018644
09:00+5e61090100 0.2 1017656
12:00+5e51190100 0.3 1016717
15:00+5e61090100 0.8 1014649
18:00+4e61391100 0.1 1012687
21:00+4ene61394100 3.6 1008681
21 april, wed
wed2100:00+4ne41097100 7.2 1003674
03:00+4ene1299100 10.4 1002107
06:00+8s51395100 5.6 1001649
09:00+4nw4697100 7.1 1004299
12:00+4w5891100 0.5 1008600
15:00+6wsw5878100 0.5 1011887
18:00+7ssw2484100 0.0 1012163
21:00+7ssw3791100 0.0 1014259
22 april, thu
thu2200:00+5ssw379358 0.1 1015170
03:00+5ssw369299 0.3 1016228
06:00+4sw379726 0.0 1017218
09:00+8wsw457481 0.1 1019878
12:00+11wsw466081 0.0 10201399
15:00+13sw4752100 0.1 10191901
18:00+11sse386880 0.0 1019278
21:00+8s397716 0.0 1020150
23 april, fri
fri2300:00+7ssw369087 0.0 1020109
03:00+7s3889100 0.0 1020141
06:00+7s399083 0.1 1020196
09:00+13s486597 0.1 1020417
12:00+16ssw584424 0.0 10202294
15:00+17s584427 0.0 10192130
18:00+14sse49586 0.0 1017343
21:00+10sse310785 0.2 1017186
24 april, sat
sat2400:00+9sse310875 0.6 1016212
03:00+8sse49925 0.8 1014198
06:00+7sse389438 0.6 1013195
09:00+11sse4776100 1.1 1011458
12:00+13ssw71068100 1.4 10091282
15:00+3wnw71496100 4.1 1011722
18:00+7w4107458 1.0 10111217
21:00+5wsw512730 1.1 1012429